Weather History for KACK - March, 2014

Change the Weather History Date:

Friday, March 7, 2014

  Actual Average Record
Temperature  
Mean Temperature 29 °F -  
Max Temperature 39 °F 43 °F 60 °F (2009)
Min Temperature 19 °F 29 °F 10 °F (2007)
Degree Days  
Heating Degree Days 36    
Moisture  
Dew Point 26 °F    
Average Humidity 74    
Maximum Humidity 86    
Minimum Humidity 64    
Precipitation  
Precipitation 0.00 in - - ()
Sea Level Pressure  
Sea Level Pressure 30.22 in    
Wind  
Wind Speed 9 mph (ENE)    
Max Wind Speed 16 mph    
Max Gust Speed 22 mph    
Visibility 10 miles    
Events Rain    
Averages and records for this station are not official NWS values.
T = Trace of Precipitation, MM = Missing Value Source: NWS Daily Summary

Daily Weather History Graph

Daily Weather History Graph

Search for Another Location

Airport or City:

Trip Planner

Search our weather history database for the weather conditions in past years. The results will help you decide how hot, cold, wet, or windy it might be!

Date:

Astronomy

Mar. 07, 2014 Rise Set
Actual Time 6:05 AM EST 5:37 PM EST
Civil Twilight 5:37 AM EST 6:05 PM EST
Nautical Twilight 5:05 AM EST 6:37 PM EST
Astronomical Twilight 4:33 AM EST 7:09 PM EST
Moon 9:51 AM EST (3/7) No Moon Set
Length of Visible Light 12h 27m
Length of Day
11h 32m
Waxing Crescent, 42% of the Moon is Illuminated
Mar 7
Waxing Crescent
Mar 8
First Quarter
Mar 16
Full
Mar 23
Last Quarter
Mar 30
New

Hourly Weather History & Observations

Time (EST) Temp. Windchill Dew Point Humidity Pressure Visibility Wind Dir Wind Speed Gust Speed Precip Events Conditions
12:53 AM 21.0 °F 13.4 °F 14.0 °F 74% 30.50 in 10.0 mi NNE 5.8 mph - N/A   Clear
1:53 AM 19.9 °F 14.9 °F 14.0 °F 78% 30.48 in 10.0 mi NNE 3.5 mph - N/A   Clear
2:53 AM 21.0 °F 13.4 °F 12.9 °F 71% 30.43 in 10.0 mi NE 5.8 mph - N/A   Clear
3:53 AM 24.1 °F 17.0 °F 15.1 °F 69% 30.43 in 10.0 mi ENE 5.8 mph - N/A   Clear
4:53 AM 25.0 °F 17.1 °F 17.1 °F 72% 30.41 in 10.0 mi East 6.9 mph - N/A   Clear
5:53 AM 26.1 °F 18.4 °F 18.0 °F 71% 30.39 in 10.0 mi East 6.9 mph - N/A   Clear
6:53 AM 28.9 °F 21.9 °F 21.0 °F 72% 30.38 in 10.0 mi East 6.9 mph - N/A   Clear
7:53 AM 32.0 °F 22.1 °F 23.0 °F 69% 30.38 in 10.0 mi East 13.8 mph - N/A   Clear
8:53 AM 35.1 °F 25.2 °F 25.0 °F 67% 30.33 in 10.0 mi East 16.1 mph - N/A   Partly Cloudy
9:53 AM 36.0 °F 26.7 °F 25.0 °F 64% 30.32 in 10.0 mi ESE 15.0 mph - N/A   Partly Cloudy
10:53 AM 37.0 °F 28.9 °F 26.1 °F 65% 30.30 in 10.0 mi East 12.7 mph - N/A   Overcast
11:42 AM 37.4 °F 29.3 °F 26.6 °F 65% 30.25 in 10.0 mi ENE 12.7 mph - N/A   Scattered Clouds
11:53 AM 37.0 °F 30.4 °F 26.1 °F 65% 30.25 in 10.0 mi ENE 9.2 mph - N/A   Partly Cloudy
12:53 PM 37.0 °F 29.3 °F 27.0 °F 67% 30.22 in 10.0 mi NE 11.5 mph - N/A   Overcast
1:53 PM 37.0 °F 28.9 °F 27.0 °F 67% 30.17 in 10.0 mi NE 12.7 mph - N/A   Overcast
2:53 PM 37.9 °F 29.2 °F 28.0 °F 68% 30.12 in 10.0 mi NE 15.0 mph 21.9 mph N/A   Scattered Clouds
3:53 PM 37.0 °F 28.1 °F 28.0 °F 70% 30.09 in 10.0 mi NE 15.0 mph - N/A   Clear
4:53 PM 37.0 °F 28.1 °F 28.9 °F 73% 30.08 in 10.0 mi NNE 15.0 mph - N/A   Clear
5:53 PM 37.0 °F 28.9 °F 30.9 °F 79% 30.06 in 10.0 mi NNE 12.7 mph - N/A   Clear
6:53 PM 37.0 °F 28.9 °F 32.0 °F 82% 30.06 in 10.0 mi NNE 12.7 mph - N/A   Clear
7:53 PM 37.9 °F 30.5 °F 34.0 °F 86% 30.02 in 10.0 mi NE 11.5 mph - N/A   Mostly Cloudy
8:53 PM 37.9 °F 30.0 °F 34.0 °F 86% 29.99 in 10.0 mi NE 12.7 mph - N/A   Overcast
9:53 PM 39.0 °F 31.4 °F 35.1 °F 86% 29.95 in 10.0 mi NE 12.7 mph - N/A   Mostly Cloudy
10:53 PM 39.0 °F 31.4 °F 35.1 °F 86% 29.91 in 10.0 mi NE 12.7 mph - N/A   Overcast
11:53 PM 39.0 °F 31.4 °F 35.1 °F 86% 29.88 in 10.0 mi NE 12.7 mph - 0.00 in Rain Light Rain